sampling_time,wmo_synop_id,msc_id,stn_nam,stn_elev,lat,long,stn_typ,date_tm,rpt_typ,result_time,crnt_buoy_lat,crnt_buoy_lat_qa_summary,crnt_buoy_long,crnt_buoy_long_qa_summary,avg_air_temp_pst10mts,avg_air_temp_pst10mts_qa_summary,avg_sea_sfc_temp_pst10mts,avg_sea_sfc_temp_pst10mts_qa_summary,avg_batry_volt_pst10mts,avg_batry_volt_pst10mts_qa_summary,avg_solr_panl_crnt_pst10mts,avg_solr_panl_crnt_pst10mts_qa_summary,avg_wtr_lvl_snsr_volt_pst10mts,avg_wtr_lvl_snsr_volt_pst10mts_qa_summary,avg_wave_hgt_pst20mts,avg_wave_hgt_pst20mts_qa_summary,pk_wave_hgt_pst20mts,pk_wave_hgt_pst20mts_qa_summary,sig_wave_pd_pst20mts,sig_wave_pd_pst20mts_qa_summary,sig_wave_hgt_pst20mts,sig_wave_hgt_pst20mts_qa_summary,avg_max_wave_hgt_pst20mts,avg_max_wave_hgt_pst20mts_qa_summary,avg_max_wave_pd_pst20mts,avg_max_wave_pd_pst20mts_qa_summary,avg_wave_pd_pst20mts,avg_wave_pd_pst20mts_qa_summary,pk_wave_pd_pst20mts,pk_wave_pd_pst20mts_qa_summary,avg_stn_pres_pst10mts,avg_stn_pres_pst10mts_qa_summary,avg_wnd_spd_pst10mts,avg_wnd_spd_pst10mts_qa_summary,avg_wnd_dir_pst10mts,avg_wnd_dir_pst10mts_qa_summary,max_avg_wnd_spd_pst10mts,max_avg_wnd_spd_pst10mts_qa_summary,wnd_snsr_vert_disp,wnd_snsr_vert_disp_qa_summary,pres_tend_char_pst3hrs,pres_tend_char_pst3hrs_data_flag,pres_tend_amt_pst3hrs,pres_tend_amt_pst3hrs_data_flag,avg_mslp_pst10mts,avg_mslp_pst10mts_data_flag,avg_stn_pres_pst10mts_1,avg_stn_pres_pst10mts_1_qa_summary,avg_stn_pres_pst10mts_2,avg_stn_pres_pst10mts_2_qa_summary,avg_wnd_spd_pst10mts_1,avg_wnd_spd_pst10mts_1_qa_summary,avg_wnd_spd_pst10mts_2,avg_wnd_spd_pst10mts_2_qa_summary,avg_wnd_dir_pst10mts_1,avg_wnd_dir_pst10mts_1_qa_summary,avg_wnd_dir_pst10mts_2,avg_wnd_dir_pst10mts_2_qa_summary,max_avg_wnd_spd_pst10mts_1,max_avg_wnd_spd_pst10mts_1_qa_summary,max_avg_wnd_spd_pst10mts_2,max_avg_wnd_spd_pst10mts_2_qa_summary
2022-10-13T00:00:00Z,44489,9302001,WEST CHEDABUCTO BAY,0,45.48687,-61.14100000000001,18,2022-10-13T00:00:00.000Z,108,2022-10-13T00:03:24.341Z,45.48723,100,-61.14105,100,12.7,100,13.2,100,12.6,100,0.0,100,3.6,100,0.1,100,0.3,100,2.3,100,0.2,100,0.3,100,2.3,100,2.3,100,2.6,100,1021.9,100,16.2,100,229,100,18.7,100,5,100,3,1,1.0,1,1021.9,1,1021.9,100,1021.9,100,16.2,100,15.8,100,229,100,231,100,18.7,100,18.7,100
2022-10-13T00:10:00Z,44489,9302001,WEST CHEDABUCTO BAY,0,45.48687,-61.14100000000001,18,2022-10-13T00:10:00.000Z,110,2022-10-13T00:13:27.831Z,,-1,,-1,13.4,100,13.9,100,12.6,100,0.0,100,3.6,100,,-1,,-1,,-1,,-1,,-1,,-1,,-1,,-1,1021.9,100,15.8,100,229,100,18.4,100,5,100,3,1,1.0,1,1021.9,1,1021.9,100,1021.9,100,15.8,100,15.5,100,229,100,231,100,18.4,100,18.0,100
2022-10-13T00:20:00Z,44489,9302001,WEST CHEDABUCTO BAY,0,45.48687,-61.14100000000001,18,2022-10-13T00:20:00.000Z,110,2022-10-13T00:23:33.613Z,45.48723,100,-61.14105,100,12.7,100,13.2,100,12.6,100,0.0,100,3.6,100,,-1,,-1,,-1,,-1,,-1,,-1,,-1,,-1,1021.9,100,13.7,100,235,100,16.2,100,5,100,3,1,1.0,1,1021.9,1,1021.9,100,1021.9,100,13.7,100,13.3,100,235,100,237,100,16.2,100,15.8,100
2022-10-13T00:30:00Z,44489,9302001,WEST CHEDABUCTO BAY,0,45.48687,-61.14100000000001,18,2022-10-13T00:30:00.000Z,110,2022-10-13T00:33:30.172Z,45.48723,100,-61.14105,100,12.6,100,13.2,100,12.6,100,0.0,100,3.6,100,,-1,,-1,,-1,,-1,,-1,,-1,,-1,,-1,1022.0,100,14.4,100,247,100,17.6,100,5,100,3,1,1.1,1,1022.0,1,1022.0,100,1022.1,100,14.4,100,14.0,100,247,100,250,100,17.6,100,17.3,100
2022-10-13T00:40:00Z,44489,9302001,WEST CHEDABUCTO BAY,0,45.48687,-61.14100000000001,18,2022-10-13T00:40:00.000Z,110,2022-10-13T00:42:32.717Z,45.48725,100,-61.14105,100,12.4,100,13.2,100,12.6,100,0.0,100,3.6,100,,-1,,-1,,-1,,-1,,-1,,-1,,-1,,-1,1022.2,100,16.6,100,250,100,19.1,100,5,100,3,1,1.2,1,1022.2,1,1022.2,100,1022.2,100,16.6,100,16.2,100,250,100,252,100,19.1,100,19.1,100
2022-10-13T00:50:00Z,44489,9302001,WEST CHEDABUCTO BAY,0,45.48687,-61.14100000000001,18,2022-10-13T00:50:00.000Z,110,2022-10-13T00:52:33.686Z,45.48723,100,-61.14105,100,12.4,100,13.2,100,12.6,100,0.0,100,3.6,100,,-1,,-1,,-1,,-1,,-1,,-1,,-1,,-1,1022.2,100,15.8,100,241,100,18.7,100,5,100,3,1,1.2,1,1022.2,1,1022.2,100,1022.2,100,15.8,100,15.5,100,241,100,244,100,18.7,100,18.4,100
2022-10-13T01:00:00Z,44489,9302001,WEST CHEDABUCTO BAY,0,45.48687,-61.14100000000001,18,2022-10-13T01:00:00.000Z,108,2022-10-13T01:02:49.353Z,45.48723,100,-61.14103000000001,100,12.4,100,13.2,100,12.5,100,0.0,100,3.6,100,0.1,100,0.3,100,2.3,100,0.2,100,0.2,100,2.3,100,2.3,100,2.5,100,1022.4,100,15.5,100,246,100,18.7,100,5,100,3,1,1.3,1,1022.4,1,1022.4,100,1022.4,100,15.5,100,15.1,100,246,100,249,100,18.7,100,18.7,100
2022-10-13T01:10:00Z,44489,9302001,WEST CHEDABUCTO BAY,0,45.48687,-61.14100000000001,18,2022-10-13T01:10:00.000Z,110,2022-10-13T01:15:56.726Z,45.48723,100,-61.14102,100,12.2,100,13.2,100,12.6,100,0.0,100,3.6,100,,-1,,-1,,-1,,-1,,-1,,-1,,-1,,-1,1022.4,100,15.1,100,249,100,19.4,100,5,100,3,1,1.2,1,1022.4,1,1022.4,100,1022.4,100,15.1,100,15.1,100,249,100,251,100,19.4,100,19.8,100
2022-10-13T01:20:00Z,44489,9302001,WEST CHEDABUCTO BAY,0,45.48687,-61.14100000000001,18,2022-10-13T01:20:00.000Z,110,2022-10-13T01:22:52.457Z,45.4872,100,-61.14102,100,12.0,100,13.2,100,12.6,100,0.0,100,3.6,100,,-1,,-1,,-1,,-1,,-1,,-1,,-1,,-1,1022.4,100,13.3,100,253,100,16.6,100,5,100,3,1,1.2,1,1022.4,1,1022.4,100,1022.4,100,13.3,100,13.3,100,253,100,256,100,16.6,100,16.6,100
2022-10-13T01:30:00Z,44489,9302001,WEST CHEDABUCTO BAY,0,45.48687,-61.14100000000001,18,2022-10-13T01:30:00.000Z,110,2022-10-13T01:32:57.344Z,45.48723,100,-61.14102,100,11.8,100,13.2,100,12.6,100,0.0,100,3.6,100,,-1,,-1,,-1,,-1,,-1,,-1,,-1,,-1,1022.4,100,14.4,100,236,100,16.6,100,5,100,2,1,1.1,1,1022.4,1,1022.4,100,1022.4,100,14.4,100,14.0,100,236,100,238,100,16.6,100,15.8,100
2022-10-13T01:40:00Z,44489,9302001,WEST CHEDABUCTO BAY,0,45.48687,-61.14100000000001,18,2022-10-13T01:40:00.000Z,110,2022-10-13T01:43:04.222Z,45.4872,100,-61.14103000000001,100,11.7,100,13.2,100,12.6,100,0.0,100,3.6,100,,-1,,-1,,-1,,-1,,-1,,-1,,-1,,-1,1022.4,100,14.8,100,240,100,16.9,100,5,100,1,1,1.1,1,1022.4,1,1022.4,100,1022.4,100,14.8,100,14.8,100,240,100,242,100,16.9,100,16.9,100
2022-10-13T01:50:00Z,44489,9302001,WEST CHEDABUCTO BAY,0,45.48687,-61.14100000000001,18,2022-10-13T01:50:00.000Z,110,2022-10-13T01:53:01.927Z,45.48723,100,-61.14102,100,11.7,100,13.2,100,12.5,100,0.0,100,3.6,100,,-1,,-1,,-1,,-1,,-1,,-1,,-1,,-1,1022.5,100,16.6,100,243,100,20.2,100,5,100,1,1,1.2,1,1022.5,1,1022.5,100,1022.5,100,16.6,100,16.2,100,243,100,245,100,20.2,100,19.8,100
2022-10-13T02:00:00Z,44489,9302001,WEST CHEDABUCTO BAY,0,45.48687,-61.14100000000001,18,2022-10-13T02:00:00.000Z,108,2022-10-13T02:03:06.165Z,45.4872,100,-61.14100000000001,100,11.6,100,13.2,100,12.5,100,0.0,100,3.6,100,0.1,100,0.3,100,2.1,100,0.2,100,0.2,100,2.2,100,2.1,100,2.2,100,1022.4,100,18.4,100,245,100,22.0,100,5,100,1,1,1.1,1,1022.4,1,1022.4,100,1022.4,100,18.4,100,18.0,100,245,100,248,100,22.0,100,21.2,100
2022-10-13T02:10:00Z,44489,9302001,WEST CHEDABUCTO BAY,0,45.48687,-61.14100000000001,18,2022-10-13T02:10:00.000Z,110,2022-10-13T02:15:55.913Z,45.48722,100,-61.14102,100,11.6,100,13.2,100,12.6,100,0.0,100,3.6,100,,-1,,-1,,-1,,-1,,-1,,-1,,-1,,-1,1022.5,100,16.2,100,248,100,19.4,100,5,100,1,1,1.2,1,1022.5,1,1022.5,100,1022.5,100,16.2,100,15.8,100,248,100,251,100,19.4,100,19.4,100
2022-10-13T02:20:00Z,44489,9302001,WEST CHEDABUCTO BAY,0,45.48687,-61.14100000000001,18,2022-10-13T02:20:00.000Z,110,2022-10-13T02:23:07.679Z,45.48718,100,-61.140969999999996,100,11.6,100,13.2,100,12.6,100,0.0,100,3.6,100,,-1,,-1,,-1,,-1,,-1,,-1,,-1,,-1,1022.4,100,19.1,100,244,100,23.4,100,5,100,1,1,1.0,1,1022.4,1,1022.4,100,1022.5,100,19.1,100,18.7,100,244,100,247,100,23.4,100,23.0,100
2022-10-13T02:30:00Z,44489,9302001,WEST CHEDABUCTO BAY,0,45.48687,-61.14100000000001,18,2022-10-13T02:30:00.000Z,110,2022-10-13T02:33:12.627Z,45.48725,100,-61.14103000000001,100,11.6,100,13.1,100,12.6,100,0.0,100,3.6,100,,-1,,-1,,-1,,-1,,-1,,-1,,-1,,-1,1022.4,100,18.4,100,247,100,22.3,100,5,100,1,1,0.8,1,1022.4,1,1022.4,100,1022.4,100,18.4,100,18.0,100,247,100,250,100,22.3,100,22.3,100
2022-10-13T02:40:00Z,44489,9302001,WEST CHEDABUCTO BAY,0,45.48687,-61.14100000000001,18,2022-10-13T02:40:00.000Z,110,2022-10-13T02:43:14.626Z,45.48723,100,-61.14103000000001,100,11.5,100,13.1,100,12.5,100,0.0,100,3.6,100,,-1,,-1,,-1,,-1,,-1,,-1,,-1,,-1,1022.4,100,17.6,100,245,100,20.9,100,5,100,1,1,0.8,1,1022.4,1,1022.4,100,1022.5,100,17.6,100,17.3,100,245,100,247,100,20.9,100,20.2,100
2022-10-13T02:50:00Z,44489,9302001,WEST CHEDABUCTO BAY,0,45.48687,-61.14100000000001,18,2022-10-13T02:50:00.000Z,110,2022-10-13T02:53:12.796Z,45.4872,100,-61.14102,100,11.3,100,13.1,100,12.5,100,0.0,100,3.6,100,,-1,,-1,,-1,,-1,,-1,,-1,,-1,,-1,1022.5,100,14.4,100,264,100,18.7,100,5,100,1,1,0.8,1,1022.5,1,1022.5,100,1022.5,100,14.4,100,14.0,100,264,100,267,100,18.7,100,18.0,100
2022-10-13T03:00:00Z,44489,9302001,WEST CHEDABUCTO BAY,0,45.48687,-61.14100000000001,18,2022-10-13T03:00:00.000Z,108,2022-10-13T03:03:15.620Z,45.48718,100,-61.14100000000001,100,11.1,100,13.1,100,12.5,100,0.0,100,3.6,100,0.1,100,0.4,100,2.1,100,0.2,100,0.3,100,2.1,100,2.1,100,2.1,100,1022.5,100,13.0,100,265,100,15.5,100,5,100,1,1,0.7,1,1022.5,1,1022.5,100,1022.6,100,13.0,100,13.0,100,265,100,267,100,15.5,100,15.5,100
2022-10-13T03:10:00Z,44489,9302001,WEST CHEDABUCTO BAY,0,45.48687,-61.14100000000001,18,2022-10-13T03:10:00.000Z,110,2022-10-13T03:16:30.034Z,45.4872,100,-61.14102,100,11.0,100,13.1,100,12.5,100,0.0,100,3.6,100,,-1,,-1,,-1,,-1,,-1,,-1,,-1,,-1,1022.6,100,11.9,100,280,100,14.8,100,5,100,1,1,0.7,1,1022.6,1,1022.6,100,1022.6,100,11.9,100,11.5,100,280,100,282,100,14.8,100,14.8,100
2022-10-13T03:20:00Z,44489,9302001,WEST CHEDABUCTO BAY,0,45.48687,-61.14100000000001,18,2022-10-13T03:20:00.000Z,110,2022-10-13T03:23:30.485Z,45.48718,100,-61.14100000000001,100,10.9,100,13.1,100,12.5,100,0.0,100,3.6,100,,-1,,-1,,-1,,-1,,-1,,-1,,-1,,-1,1022.6,100,11.9,100,285,100,14.8,100,5,100,1,1,0.7,1,1022.6,1,1022.6,100,1022.6,100,11.9,100,11.9,100,285,100,288,100,14.8,100,14.8,100
2022-10-13T03:30:00Z,44489,9302001,WEST CHEDABUCTO BAY,0,45.48687,-61.14100000000001,18,2022-10-13T03:30:00.000Z,110,2022-10-13T03:33:27.900Z,45.48718,100,-61.14102,100,10.8,100,13.0,100,12.5,100,0.0,100,3.6,100,,-1,,-1,,-1,,-1,,-1,,-1,,-1,,-1,1022.6,100,10.1,100,275,100,13.0,100,5,100,1,1,0.6,1,1022.6,1,1022.6,100,1022.6,100,10.1,100,10.1,100,275,100,278,100,13.0,100,13.0,100
2022-10-13T03:40:00Z,44489,9302001,WEST CHEDABUCTO BAY,0,45.48687,-61.14100000000001,18,2022-10-13T03:40:00.000Z,110,2022-10-13T03:43:34.862Z,45.48722,100,-61.14103000000001,100,10.8,100,13.0,100,12.5,100,0.0,100,3.6,100,,-1,,-1,,-1,,-1,,-1,,-1,,-1,,-1,1022.6,100,12.2,100,259,100,15.1,100,5,100,2,1,0.5,1,1022.6,1,1022.6,100,1022.6,100,12.2,100,11.9,100,259,100,261,100,15.1,100,14.8,100
2022-10-13T03:50:00Z,44489,9302001,WEST CHEDABUCTO BAY,0,45.48687,-61.14100000000001,18,2022-10-13T03:50:00.000Z,110,2022-10-13T03:53:32.305Z,45.4872,100,-61.14102,100,10.8,100,13.0,100,12.5,100,0.0,100,3.6,100,,-1,,-1,,-1,,-1,,-1,,-1,,-1,,-1,1022.6,100,14.8,100,248,100,18.4,100,5,100,1,1,0.4,1,1022.6,1,1022.6,100,1022.6,100,14.8,100,14.4,100,248,100,250,100,18.4,100,17.6,100
2022-10-13T04:00:00Z,44489,9302001,WEST CHEDABUCTO BAY,0,45.48687,-61.14100000000001,18,2022-10-13T04:00:00.000Z,108,2022-10-13T04:03:37.643Z,45.48722,100,-61.14103000000001,100,10.7,100,13.0,100,12.5,100,0.0,100,3.6,100,0.1,100,0.2,100,2.3,100,0.1,100,0.1,100,2.3,100,2.3,100,8.3,100,1022.6,100,14.4,100,259,100,17.3,100,5,100,1,1,0.2,1,1022.6,1,1022.6,100,1022.6,100,14.4,100,14.0,100,259,100,262,100,17.3,100,16.9,100
2022-10-13T04:10:00Z,44489,9302001,WEST CHEDABUCTO BAY,0,45.48687,-61.14100000000001,18,2022-10-13T04:10:00.000Z,110,2022-10-13T04:15:40.332Z,45.48722,100,-61.14103000000001,100,10.7,100,13.0,100,12.5,100,0.0,100,3.6,100,,-1,,-1,,-1,,-1,,-1,,-1,,-1,,-1,1022.5,100,14.0,100,256,100,17.3,100,5,100,0,1,0.2,1,1022.5,1,1022.5,100,1022.5,100,14.0,100,13.7,100,256,100,258,100,17.3,100,17.3,100
2022-10-13T04:20:00Z,44489,9302001,WEST CHEDABUCTO BAY,0,45.48687,-61.14100000000001,18,2022-10-13T04:20:00.000Z,110,2022-10-13T04:22:40.699Z,45.4872,100,-61.14102,100,10.9,100,13.0,100,12.5,100,0.0,100,3.6,100,,-1,,-1,,-1,,-1,,-1,,-1,,-1,,-1,1022.5,100,14.4,100,248,100,16.2,100,5,100,0,1,0.1,1,1022.5,1,1022.5,100,1022.5,100,14.4,100,14.0,100,248,100,251,100,16.2,100,16.2,100
2022-10-13T04:30:00Z,44489,9302001,WEST CHEDABUCTO BAY,0,45.48687,-61.14100000000001,18,2022-10-13T04:30:00.000Z,110,2022-10-13T04:32:44.617Z,45.4872,100,-61.14102,100,10.9,100,13.0,100,12.5,100,0.0,100,3.6,100,,-1,,-1,,-1,,-1,,-1,,-1,,-1,,-1,1022.5,100,14.0,100,249,100,15.8,100,5,100,0,1,0.1,1,1022.5,1,1022.5,100,1022.5,100,14.0,100,13.7,100,249,100,252,100,15.8,100,15.1,100
2022-10-13T04:40:00Z,44489,9302001,WEST CHEDABUCTO BAY,0,45.48687,-61.14100000000001,18,2022-10-13T04:40:00.000Z,110,2022-10-13T04:43:49.744Z,45.4872,100,-61.14102,100,11.0,100,12.9,100,12.5,100,0.0,100,3.6,100,,-1,,-1,,-1,,-1,,-1,,-1,,-1,,-1,1022.5,100,16.2,100,242,100,19.4,100,5,100,0,1,0.1,1,1022.5,1,1022.5,100,1022.6,100,16.2,100,15.8,100,242,100,245,100,19.4,100,19.1,100
2022-10-13T04:50:00Z,44489,9302001,WEST CHEDABUCTO BAY,0,45.48687,-61.14100000000001,18,2022-10-13T04:50:00.000Z,110,2022-10-13T04:52:51.084Z,45.4872,100,-61.14103000000001,100,10.9,100,12.9,100,12.5,100,0.0,100,3.6,100,,-1,,-1,,-1,,-1,,-1,,-1,,-1,,-1,1022.6,100,15.5,100,242,100,19.1,100,5,100,1,1,0.1,1,1022.6,1,1022.6,100,1022.6,100,15.5,100,15.1,100,242,100,244,100,19.1,100,19.1,100
2022-10-13T05:00:00Z,44489,9302001,WEST CHEDABUCTO BAY,0,45.48687,-61.14100000000001,18,2022-10-13T05:00:00.000Z,108,2022-10-13T05:03:05.342Z,45.48722,100,-61.14103000000001,100,10.9,100,12.9,100,12.5,100,0.0,100,3.6,100,0.1,100,0.1,100,2.7,100,0.1,100,0.1,100,2.7,100,2.4,100,8.0,100,1022.6,100,14.0,100,233,100,15.8,100,5,100,2,1,0.2,1,1022.6,1,1022.6,100,1022.6,100,14.0,100,13.7,100,233,100,235,100,15.8,100,15.5,100
2022-10-13T05:10:00Z,44489,9302001,WEST CHEDABUCTO BAY,0,45.48687,-61.14100000000001,18,2022-10-13T05:10:00.000Z,110,2022-10-13T05:15:55.430Z,45.48723,100,-61.14103000000001,100,10.8,100,12.9,100,12.5,100,0.0,100,3.6,100,,-1,,-1,,-1,,-1,,-1,,-1,,-1,,-1,1022.7,100,14.0,100,226,100,16.2,100,5,100,2,1,0.2,1,1022.7,1,1022.7,100,1022.7,100,14.0,100,13.7,100,226,100,228,100,16.2,100,16.2,100
2022-10-13T05:20:00Z,44489,9302001,WEST CHEDABUCTO BAY,0,45.48687,-61.14100000000001,18,2022-10-13T05:20:00.000Z,110,2022-10-13T05:22:56.161Z,45.48722,100,-61.14102,100,10.8,100,12.9,100,12.5,100,0.0,100,3.6,100,,-1,,-1,,-1,,-1,,-1,,-1,,-1,,-1,1022.7,100,13.0,100,228,100,14.4,100,5,100,2,1,0.2,1,1022.7,1,1022.7,100,1022.7,100,13.0,100,12.6,100,228,100,230,100,14.4,100,14.0,100
2022-10-13T05:30:00Z,44489,9302001,WEST CHEDABUCTO BAY,0,45.48687,-61.14100000000001,18,2022-10-13T05:30:00.000Z,110,2022-10-13T05:32:58.842Z,45.48722,100,-61.14100000000001,100,10.9,100,12.9,100,12.5,100,0.0,100,3.6,100,,-1,,-1,,-1,,-1,,-1,,-1,,-1,,-1,1022.8,100,12.6,100,233,100,14.4,100,5,100,2,1,0.4,1,1022.8,1,1022.8,100,1022.8,100,12.6,100,12.6,100,233,100,235,100,14.4,100,14.0,100
2022-10-13T05:40:00Z,44489,9302001,WEST CHEDABUCTO BAY,0,45.48687,-61.14100000000001,18,2022-10-13T05:40:00.000Z,110,2022-10-13T05:43:03.293Z,45.48722,100,-61.14100000000001,100,10.9,100,12.9,100,12.5,100,0.0,100,3.6,100,,-1,,-1,,-1,,-1,,-1,,-1,,-1,,-1,1022.7,100,13.0,100,234,100,16.2,100,5,100,2,1,0.3,1,1022.7,1,1022.7,100,1022.7,100,13.0,100,12.6,100,234,100,237,100,16.2,100,15.5,100
2022-10-13T05:50:00Z,44489,9302001,WEST CHEDABUCTO BAY,0,45.48687,-61.14100000000001,18,2022-10-13T05:50:00.000Z,110,2022-10-13T05:53:10.359Z,45.48723,100,-61.14100000000001,100,10.9,100,12.9,100,12.4,100,0.0,100,3.6,100,,-1,,-1,,-1,,-1,,-1,,-1,,-1,,-1,1022.8,100,15.5,100,232,100,18.7,100,5,100,3,1,0.3,1,1022.8,1,1022.8,100,1022.8,100,15.5,100,15.1,100,232,100,234,100,18.7,100,18.7,100
2022-10-13T06:00:00Z,44489,9302001,WEST CHEDABUCTO BAY,0,45.48687,-61.14100000000001,18,2022-10-13T06:00:00.000Z,108,2022-10-13T06:03:15.234Z,45.48722,100,-61.14102,100,10.8,100,12.9,100,12.5,100,0.0,100,3.6,100,0.1,100,0.2,100,3.4,100,0.1,100,0.1,100,4.5,100,2.6,100,8.7,100,1022.8,100,15.8,100,230,100,17.6,100,5,100,3,1,0.3,1,1022.8,1,1022.8,100,1022.8,100,15.8,100,15.5,100,230,100,232,100,17.6,100,17.3,100
2022-10-13T06:10:00Z,44489,9302001,WEST CHEDABUCTO BAY,0,45.48687,-61.14100000000001,18,2022-10-13T06:10:00.000Z,110,2022-10-13T06:16:17.063Z,45.48722,100,-61.14100000000001,100,10.7,100,12.9,100,12.5,100,0.0,100,3.6,100,,-1,,-1,,-1,,-1,,-1,,-1,,-1,,-1,1022.8,100,15.8,100,236,100,19.1,100,5,100,3,1,0.2,1,1022.8,1,1022.8,100,1022.8,100,15.8,100,15.5,100,236,100,238,100,19.1,100,18.0,100
2022-10-13T06:20:00Z,44489,9302001,WEST CHEDABUCTO BAY,0,45.48687,-61.14100000000001,18,2022-10-13T06:20:00.000Z,110,2022-10-13T06:23:21.106Z,45.48723,100,-61.14103000000001,100,10.9,100,12.9,100,12.5,100,0.0,100,3.6,100,,-1,,-1,,-1,,-1,,-1,,-1,,-1,,-1,1022.8,100,16.2,100,249,100,20.2,100,5,100,3,1,0.1,1,1022.8,1,1022.8,100,1022.8,100,16.2,100,15.8,100,249,100,251,100,20.2,100,19.4,100
2022-10-13T06:30:00Z,44489,9302001,WEST CHEDABUCTO BAY,0,45.48687,-61.14100000000001,18,2022-10-13T06:30:00.000Z,110,2022-10-13T06:33:16.861Z,45.48723,100,-61.14102,100,10.8,100,12.9,100,12.5,100,0.0,100,3.6,100,,-1,,-1,,-1,,-1,,-1,,-1,,-1,,-1,1022.7,100,18.0,100,250,100,20.9,100,5,100,3,1,0.1,1,1022.7,1,1022.7,100,1022.8,100,18.0,100,17.6,100,250,100,252,100,20.9,100,20.5,100
2022-10-13T06:40:00Z,44489,9302001,WEST CHEDABUCTO BAY,0,45.48687,-61.14100000000001,18,2022-10-13T06:40:00.000Z,110,2022-10-13T06:43:32.017Z,45.48723,100,-61.14100000000001,100,10.8,100,12.9,100,12.4,100,0.0,100,3.6,100,,-1,,-1,,-1,,-1,,-1,,-1,,-1,,-1,1022.8,100,16.9,100,253,100,19.8,100,5,100,3,1,0.1,1,1022.8,1,1022.8,100,1022.8,100,16.9,100,16.6,100,253,100,256,100,19.8,100,19.4,100
2022-10-13T06:50:00Z,44489,9302001,WEST CHEDABUCTO BAY,0,45.48687,-61.14100000000001,18,2022-10-13T06:50:00.000Z,110,2022-10-13T06:53:31.519Z,45.48723,100,-61.14102,100,10.7,100,12.9,100,12.4,100,0.0,100,3.6,100,,-1,,-1,,-1,,-1,,-1,,-1,,-1,,-1,1022.8,100,14.0,100,245,100,17.3,100,5,100,1,1,0.2,1,1022.8,1,1022.8,100,1022.8,100,14.0,100,14.0,100,245,100,248,100,17.3,100,17.3,100
2022-10-13T07:00:00Z,44489,9302001,WEST CHEDABUCTO BAY,0,45.48687,-61.14100000000001,18,2022-10-13T07:00:00.000Z,108,2022-10-13T07:03:35.742Z,45.4872,100,-61.14102,100,10.8,100,12.9,100,12.4,100,0.0,100,3.6,100,0.1,100,0.2,100,3.4,100,0.1,100,0.1,100,4.7,100,2.6,100,8.3,100,1022.8,100,13.7,100,256,100,16.6,100,5,100,1,1,0.3,1,1022.8,1,1022.8,100,1022.8,100,13.7,100,13.3,100,256,100,258,100,16.6,100,16.2,100
2022-10-13T07:10:00Z,44489,9302001,WEST CHEDABUCTO BAY,0,45.48687,-61.14100000000001,18,2022-10-13T07:10:00.000Z,110,2022-10-13T07:15:38.362Z,45.48722,100,-61.14102,100,10.9,100,12.9,100,12.5,100,0.0,100,3.6,100,,-1,,-1,,-1,,-1,,-1,,-1,,-1,,-1,1022.8,100,14.0,100,253,100,15.8,100,5,100,1,1,0.3,1,1022.8,1,1022.8,100,1022.9,100,14.0,100,13.7,100,253,100,255,100,15.8,100,15.5,100
2022-10-13T07:20:00Z,44489,9302001,WEST CHEDABUCTO BAY,0,45.48687,-61.14100000000001,18,2022-10-13T07:20:00.000Z,110,2022-10-13T07:22:39.388Z,45.48722,100,-61.14100000000001,100,10.8,100,12.9,100,12.4,100,0.0,100,3.6,100,,-1,,-1,,-1,,-1,,-1,,-1,,-1,,-1,1022.9,100,10.8,100,243,100,13.7,100,5,100,1,1,0.4,1,1022.9,1,1022.9,100,1022.9,100,10.8,100,10.8,100,243,100,245,100,13.7,100,13.3,100
2022-10-13T07:30:00Z,44489,9302001,WEST CHEDABUCTO BAY,0,45.48687,-61.14100000000001,18,2022-10-13T07:30:00.000Z,110,2022-10-13T07:32:51.922Z,45.48725,100,-61.14102,100,10.8,100,12.9,100,12.4,100,0.0,100,3.6,100,,-1,,-1,,-1,,-1,,-1,,-1,,-1,,-1,1023.0,100,11.5,100,246,100,13.3,100,5,100,2,1,0.4,1,1023.0,1,1023.0,100,1023.0,100,11.5,100,11.2,100,246,100,249,100,13.3,100,13.3,100
2022-10-13T07:40:00Z,44489,9302001,WEST CHEDABUCTO BAY,0,45.48687,-61.14100000000001,18,2022-10-13T07:40:00.000Z,110,2022-10-13T07:43:51.845Z,45.4872,100,-61.14100000000001,100,10.8,100,12.9,100,12.4,100,0.0,100,3.6,100,,-1,,-1,,-1,,-1,,-1,,-1,,-1,,-1,1023.0,100,13.0,100,247,100,15.5,100,5,100,3,1,0.4,1,1023.0,1,1023.0,100,1023.0,100,13.0,100,12.6,100,247,100,249,100,15.5,100,15.8,100
2022-10-13T07:50:00Z,44489,9302001,WEST CHEDABUCTO BAY,0,45.48687,-61.14100000000001,18,2022-10-13T07:50:00.000Z,110,2022-10-13T07:52:48.133Z,45.48722,100,-61.14100000000001,100,10.7,100,12.9,100,12.4,100,0.0,100,3.6,100,,-1,,-1,,-1,,-1,,-1,,-1,,-1,,-1,1023.0,100,13.7,100,246,100,15.5,100,5,100,2,1,0.4,1,1023.0,1,1023.0,100,1023.0,100,13.7,100,13.3,100,246,100,248,100,15.5,100,15.5,100
2022-10-13T08:00:00Z,44489,9302001,WEST CHEDABUCTO BAY,0,45.48687,-61.14100000000001,18,2022-10-13T08:00:00.000Z,108,2022-10-13T08:02:51.044Z,45.48722,100,-61.14103000000001,100,10.5,100,12.9,100,12.4,100,0.0,100,3.6,100,0.1,100,0.2,100,2.7,100,0.1,100,0.1,100,3.0,100,2.4,100,8.7,100,1023.0,100,13.7,100,244,100,15.8,100,5,100,2,1,0.3,1,1023.0,1,1023.0,100,1023.0,100,13.7,100,13.3,100,244,100,246,100,15.8,100,15.8,100
2022-10-13T08:10:00Z,44489,9302001,WEST CHEDABUCTO BAY,0,45.48687,-61.14100000000001,18,2022-10-13T08:10:00.000Z,110,2022-10-13T08:15:43.529Z,45.48723,100,-61.14102,100,10.6,100,12.8,100,12.4,100,0.0,100,3.6,100,,-1,,-1,,-1,,-1,,-1,,-1,,-1,,-1,1023.0,100,11.9,100,235,100,14.0,100,5,100,3,1,0.3,1,1023.0,1,1023.0,100,1023.1,100,11.9,100,11.9,100,235,100,238,100,14.0,100,14.0,100
2022-10-13T08:20:00Z,44489,9302001,WEST CHEDABUCTO BAY,0,45.48687,-61.14100000000001,18,2022-10-13T08:20:00.000Z,110,2022-10-13T08:22:54.601Z,45.48722,100,-61.140980000000006,100,10.9,100,12.8,100,12.4,100,0.0,100,3.6,100,,-1,,-1,,-1,,-1,,-1,,-1,,-1,,-1,1023.2,100,13.0,100,225,100,14.8,100,5,100,3,1,0.5,1,1023.2,1,1023.2,100,1023.2,100,13.0,100,12.6,100,225,100,227,100,14.8,100,14.4,100
2022-10-13T08:30:00Z,44489,9302001,WEST CHEDABUCTO BAY,0,45.48687,-61.14100000000001,18,2022-10-13T08:30:00.000Z,110,2022-10-13T08:32:58.459Z,45.4872,100,-61.14102,100,11.0,100,12.8,100,12.4,100,0.0,100,3.6,100,,-1,,-1,,-1,,-1,,-1,,-1,,-1,,-1,1023.2,100,11.5,100,226,100,13.7,100,5,100,3,1,0.5,1,1023.2,1,1023.2,100,1023.2,100,11.5,100,11.2,100,226,100,228,100,13.7,100,13.3,100
2022-10-13T08:40:00Z,44489,9302001,WEST CHEDABUCTO BAY,0,45.48687,-61.14100000000001,18,2022-10-13T08:40:00.000Z,110,2022-10-13T08:42:55.861Z,45.48722,100,-61.140980000000006,100,11.0,100,12.8,100,12.4,100,0.0,100,3.6,100,,-1,,-1,,-1,,-1,,-1,,-1,,-1,,-1,1023.3,100,11.9,100,241,100,13.3,100,5,100,3,1,0.7,1,1023.3,1,1023.3,100,1023.4,100,11.9,100,11.5,100,241,100,243,100,13.3,100,13.3,100
2022-10-13T08:50:00Z,44489,9302001,WEST CHEDABUCTO BAY,0,45.48687,-61.14100000000001,18,2022-10-13T08:50:00.000Z,110,2022-10-13T08:53:03.963Z,45.4872,100,-61.14100000000001,100,10.9,100,12.8,100,12.4,100,0.0,100,3.6,100,,-1,,-1,,-1,,-1,,-1,,-1,,-1,,-1,1023.4,100,12.2,100,241,100,15.1,100,5,100,3,1,0.6,1,1023.4,1,1023.4,100,1023.4,100,12.2,100,12.2,100,241,100,243,100,15.1,100,14.8,100
2022-10-13T09:00:00Z,44489,9302001,WEST CHEDABUCTO BAY,0,45.48687,-61.14100000000001,18,2022-10-13T09:00:00.000Z,108,2022-10-13T09:03:07.934Z,45.4872,100,-61.140969999999996,100,10.8,100,12.8,100,12.4,100,0.0,100,3.6,100,0.0,100,0.1,100,2.2,100,0.1,100,0.1,100,2.2,100,2.1,100,1.7,0,1023.5,100,13.0,100,244,100,16.2,100,5,100,3,1,0.7,1,1023.5,1,1023.5,100,1023.5,100,13.0,100,12.6,100,244,100,246,100,16.2,100,15.5,100
2022-10-13T09:10:00Z,44489,9302001,WEST CHEDABUCTO BAY,0,45.48687,-61.14100000000001,18,2022-10-13T09:10:00.000Z,110,2022-10-13T09:16:02.307Z,45.4872,100,-61.14100000000001,100,10.3,100,12.8,100,12.4,100,0.0,100,3.6,100,,-1,,-1,,-1,,-1,,-1,,-1,,-1,,-1,1023.5,100,13.3,100,258,100,16.2,100,5,100,3,1,0.7,1,1023.5,1,1023.5,100,1023.5,100,13.3,100,13.0,100,258,100,261,100,16.2,100,16.2,100